STARLINK-32866, 62858

Orbit data source: Space-Track

STARLINK-32866, 62858 is a payload satellite owned by SpaceX/Seattle (US) in LEO that was launched on Sat, 01 Feb 2025 UTC via an FALCON 9 launch vehicle from the Air Force Western Test Range (AFWTR). Payload-class satellites include a variety of spacecraft equipped with specific instruments for various scientific and technological missions. These include communications satellites like Starlink; space stations such as the ISS; scientific satellites like the Hubble; Earth observation satellites from companies like Planet Labs, Umbra, and HawkEye 360; GPS; miniature CubeSats for education and research; and military/defense satellites.

Loading next visibility...
Identifier
62858, 2025-022E
Orbit
LEO
Last TLE update
1 day ago
Origin
Manufacturer
SpaceX/Seattle
Mission
Operational Commercial Communications
Bus & Motor
STARLINK V2M, Unknown motor
Mass
730 kg wet, ~700 kg dry
Launch date (UTC)
2025-02-01 (3 months ago)
Launch vehicle
FALCON 9
Launch site
Air Force Western Test Range (AFWTR)
Object type
Payload
Rocket body
Debris
Shape & HBR
Box + 2 Pan, 29 m
Radar Cross Section
33.884 m², Large (>1 m²)

Expand to show TLE details & history

TLE from 1 day ago
0 STARLINK-32866
1 62858U 25022E   25128.33116051  .00006790  00000-0  17981-3 0  9999
2 62858  53.1610 111.8592 0000354  91.8146 268.2899 15.39578434 16005
Epoch: 2025-05-08T07:56Z
Definitive object data (Epoch: 2025-05-08T07:56:52.268Z)
Latitude
-0.00003°
Longitude
126.2382°
Altitude
448.266 km
Speed
7.645 km/s
True Right ascension
07h 27m 26s
True Declination
0° 00' 00"
Sunlit
Object was in daylight at TLE epoch
Visualization TLE readout
Latitude
-53.31345°
Longitude
31.35383°
Altitude
466.092 km
Speed
7.633 km/s
Apparent Right ascension
03h 03m 11s
Apparent Declination
-49° 45' 04"
Sunlit
Object is in daylight
Visualization observer readout
Local Sidereal Time
16:38:17
Azimuth
128.336° SE
Elevation
-70.602°
Doppler factor
1
Orbital elements
Apogee altitude
447.854 km
Perigee altitude
447.371 km
Semi-major axis
6,825.749 km
Eccentricity
0.0000354
Inclination
53.161°
RAAN
111.8592°
Arg. of periapsis
91.8146°
True anomaly
268.28585°
Mean anomaly
268.2899°
Eccentric anomaly
268.28787°
Mean motion
3.84873 °/min
BSTAR
0.00017981
Orbital period
93.54 mins
Loading maneuver chart data...
Loading SW <> Apogee altitude chart data...
Loading historical data...
Loading historical data...
Loading historical data...
Loading historical data...
Loading historical data...
Loading historical data...
Loading historical data...

STARLINK-32866 Visibility forecast

Observer location: undefined°, undefined°

Span
Click to sort rows by Start time (UTC) header in descending order
Start Az.
Max El. time (UTC)
Max El. Az.
Max El.
End time (UTC)
End Az.
5 mins2025-05-09 09:25:07.606Z278.562° WNW2025-05-09 09:28:07.606Z219.154° SW18.578°2025-05-09 09:30:07.606Z183.439° SSW
4 mins2025-05-10 00:38:07.606Z183.321° SSW2025-05-10 00:40:07.606Z116.217° SE29.378°2025-05-10 00:42:07.606Z72.302° E
4 mins2025-05-10 02:15:07.606Z281.702° WNW2025-05-10 02:17:07.606Z332.887° NNW25.143°2025-05-10 02:19:07.606Z20.951° NNE
5 mins2025-05-10 07:10:07.606Z338.456° N2025-05-10 07:12:07.606Z33.571° NE28.224°2025-05-10 07:15:07.606Z96.52° ESE
|